Location: Cahas Mountain Overlook
(37.0833°N, 80.1000°W)
Time: 10:51:42
(UTC-04:00)

A-11 Canister half - Pass Details

Date: 11 February 2026
Orbit: 1524 x 1683 km, 47.3° (Epoch: 16 March)

Event Time Altitude Azimuth Distance (km) Brightness Sun altitude
Rises 22:37:10 0° 295° (WNW) 4,674 12.1 -54.9°
Reaches altitude 10° 22:40:20 10° 301° (WNW) 3,694 11.4 -55.4°
Enters shadow 22:43:07 22° 309° (NW) 2,884 10.7 -55.9°
